User: anonymous   Login
Location: Antichan
(42.9728°N, 0.6667°E)
Time: 19:44:56
(UTC+00:00)
Language:

Cosmos 2219 Rocket - Orbit

View from above orbital plane
View from above orbital plane
View from above satellite
View from above satellite

Ground track
Ground track

The orbit data is extracted from the following two-line orbital elements,

1 22220U 92076B   20304.24344498 +.00000230 +00000-0 +13973-3 0  9990
2 22220 071.0015 347.8432 0013739 206.4323 215.3402 14.16462015444760
Epoch (UTC): 30 October 2020 05:50:33
Eccentricity: 0.0013739
inclination: 71.0015°
perigee height: 827 km
apogee height: 847 km
right ascension of ascending node: 347.8432°
argument of perigee: 206.4323°
revolutions per day: 14.16462015
mean anomaly at epoch: 215.3402°
orbit number at epoch: 44476

The dashed part of the orbit path shows where the satellite is in the earth's shadow,  

DLR